Regional Weather Roundup
Issued by NWS

Home | Current Version | Previous Version | Text Only | Print | Product List | Glossary Off
Versions: 1 2 3 4 5 6 7 8 9 10 11 12 13 14 15 16 17 18 19 20 21 22 23 24 25 26 27 28 29 30 31 32 33 34 35 36 37 38 39 40 41 42 43 44 45 46 47 48 49 50

000
ASUS43 KLOT 212208
RWRIL

ILLINOIS REGIONAL WEATHER ROUNDUP
NATIONAL WEATHER SERVICE CHICAGO/ROMEOVILLE IL
400 PM CST TUE NOV 21 2017

NOTE: "FAIR" INDICATES FEW OR NO CLOUDS BELOW 12,000 FEET WITH NO
SIGNIFICANT WEATHER AND/OR OBSTRUCTIONS TO VISIBILITY.

* THESE STATIONS ARE NOT UNDER NWS QUALITY CONTROL. THEY ALSO MAY NOT
  REPORT WEATHER SUCH AS PRECIPITATION OR FOG.

ILZ001-002-007-009-015-016-024-212300-
NORTHWEST ILLINOIS

CITY           SKY/WX    TMP DP  RH WIND       PRES   REMARKS
MOLINE         CLEAR     34  17  50 NW21G28   30.11R WCI  22
STERLING*      MOCLDY    34  20  56 NW14      30.08R WCI  25
SAVANNA*       PTCLDY    33  18  54 NW14G25   30.09R WCI  23
$$

ILZ003-004-008-010-011-017-018-212300-
NORTH CENTRAL ILLINOIS

CITY           SKY/WX    TMP DP  RH WIND       PRES   REMARKS
ROCKFORD       MOCLDY    34  18  52 NW16      30.06R WCI  24
FREEPORT*      MOCLDY    32  19  58 NW15G21   30.07R WCI  21
ROCHELLE*      CLOUDY    33  20  60 NW15G24   30.05R WCI  23
DE KALB*       MOCLDY    34  19  55 NW14      30.02R WCI  24
PERU*          MOCLDY    33  21  60 NW13      30.07R WCI  24
$$

ILZ005-006-012>014-019>023-212300-
NORTHEAST ILLINOIS

CITY           SKY/WX    TMP DP  RH WIND       PRES   REMARKS
CHICAGO-OHARE  PTCLDY    35  18  49 NW16      30.00R WCI  25
CHICAGO-MIDWAY MOCLDY    36  20  52 NW15      30.00R WCI  27
AURORA         PTCLDY    34  21  59 NW16      30.02R WCI  24
LANSING*       CLOUDY    37  24  60 W9G17     29.98R WCI  30
JOLIET*        CLOUDY    37  25  62 W6        30.02R WCI  32
WAUKEGAN       MOCLDY    33  17  51 NW8       30.00R WCI  26
DUPAGE AIRPORT PTCLDY    34  19  54 NW13G25   30.01R WCI  25
KANKAKEE*      PTCLDY    35  23  61 NW13G21   30.03R WCI  27
WHEELING       PTCLDY    35  18  49 NW17G25   30.02R WCI  25
MORRIS*        CLOUDY    35  23  63 NW17      30.03R WCI  24
ROMEOVILLE*    CLOUDY    35  23  62 N12G22    30.01R WCI  27
NORTHERLY ISL    N/A     36  19  50 NW17        N/A  WCI  26
$$

LMZ740>746-212300-
SOUTHERN LAKE MICHIGAN

STATION/POSITION SKY/WX   TEMP    WIND        PRES    VSBY  WAVE
                          AIR SEA DIR/SP/G                  HT/PER
                          (F)     (DEG/KT/KT) (MB)    (MI)  (FT/S)
SOUTHERN BUOY              36 47  340/ 25/ 29 1012.4          7/ 6
HARRISON CRIB              36     320/ 22/ 23   N/A
BURNHAM HARBOR             35     280/ 13/ 19   N/A
CALUMET HARBOR             37     300/ 16/ 21 1014.2R
BURNS HARBOR               39     340/ 23/ 27 1014.9R
MICHIGAN CITY              38     310/ 25/ 28   N/A
$$

ILZ025>027-034>036-040-047-049-050-058-095>099-212300-
WEST-CENTRAL ILLINOIS

CITY           SKY/WX    TMP DP  RH WIND       PRES   REMARKS
QUINCY         CLEAR     38  21  50 NW16      30.13R WCI  29
GALESBURG*     CLEAR     34  22  61 NW17G23   30.12R WCI  23
MACOMB*        CLEAR     35  21  57 NW18G29   30.14R WCI  24
JACKSONVILLE*  CLOUDY    40  23  52 NW16      30.10R
PITTSFIELD*    CLOUDY    43  22  43 NW13G18   30.12R
$$

ILZ028>032-037-038-041>044-048-051>054-059>061-212300-
CENTRAL ILLINOIS

CITY           SKY/WX    TMP DP  RH WIND       PRES   REMARKS
PONTIAC        PTCLDY    35  24  65 NW14      30.06R WCI  25
BLOOMINGTON    CLOUDY    35  22  58 NW17G26   30.07R WCI  25
DECATUR        CLOUDY    41  24  51 NW10      30.06R
PEORIA         PTCLDY    35  20  54 NW10G29   30.10R WCI  27
LACON*         PTCLDY    34  21  59 NW13G22   30.08R WCI  25
LINCOLN*       CLOUDY    39  26  58 NW10G18   30.08R WCI  32
SPRINGFIELD    CLOUDY    41  22  46 NW15G23   30.09R
TAYLORVILLE    CLOUDY    40  22  47 NW10G25   30.08R
$$

ILZ033-039-045-046-055>057-062-063-212300-
EAST-CENTRAL ILLINOIS

CITY           SKY/WX    TMP DP  RH WIND       PRES   REMARKS
CHAMPAIGN      LGT RAIN  38  31  76 NW9       30.04R WCI  31
DANVILLE*      LGT SNOW  34  32  92 W10       30.01R WCI  26
RANTOUL*       CLOUDY    38  30  73 NW8       30.03R WCI  32
MATTOON        CLOUDY    44  28  53 N16       30.02R
PARIS*         CLOUDY    42  27  55 NW15      30.03R
$$

ILZ079-100>102-212300-
SOUTHWEST ILLINOIS

CITY           SKY/WX    TMP DP  RH WIND       PRES   REMARKS
ALTON          MOCLDY    48  30  49 NW14      30.07R
BELLEVILLE     CLOUDY    52  32  46 N14       30.04R
CAHOKIA*       CLOUDY    51  26  37 NW22      30.07R
SPARTA*        CLOUDY    55  34  46 N7        30.03R
$$

ILZ064>066-069>071-074>076-080>082-084>086-088>090-092>094-212300-
SOUTH-CENTRAL ILLINOIS

CITY           SKY/WX    TMP DP  RH WIND       PRES   REMARKS
CARBONDALE     CLOUDY    57  36  45 W3        30.01R
CAIRO*         MOCLDY    54  40  59 S5        30.00F
EFFINGHAM*     CLOUDY    50  37  60 NW14      30.04R
MARION         PTCLDY    57  34  41 NW10      30.02R
MT. VERNON     CLOUDY    55  36  48 CALM      30.01R
CENTRALIA*     PTCLDY    52  35  51 N16       30.02R
SALEM*         CLOUDY    50  30  46 N15G22    30.03R
METROPOLIS*    CLOUDY    56  40  54 SW6       30.01S
$$

ILZ067-068-072-073-078-083-087-091-212300-
SOUTHEAST ILLINOIS

CITY           SKY/WX    TMP DP  RH WIND       PRES   REMARKS
LAWRENCEVILLE  CLOUDY    53  36  52 NW13      30.00R
FLORA*         CLOUDY    54  37  53 NW8       30.01R
FAIRFIELD*     CLOUDY    54  36  50 CALM      30.00R
HARRISBURG*    CLOUDY    56  37  49 NW12      30.01R
ROBINSON*      CLOUDY    50  37  61 W6        30.01R
CARMI*         CLOUDY    54  38  54 NW12      30.00R
$$

ABBREVIATIONS USED IN REMARKS
   TC - TEMPERATURE IN CELSIUS
  WCI - WIND CHILL INDEX
   HX - HEAT INDEX
  VSB - VISIBILITY
$$





USA.gov is the U.S. government's official web portal to all federal, state and local government web resources and services.